Theta_e
314 313 313 313 313 313 312 311 311 311 309 308 308 309 309 309 311 313 315 314 316 318 322 324 325 326 327 329 332 335 338 341 346 345 345 342 340 340 341 338 338 335 334
314 313 312 312 312 313 313 312 311 311 310 309 308 307 309 309 310 309 312 313 311 313 317 319 320 320 322 324 327 331 334 335 340 343 346 346 344 343 342 340 338 336 335
314 313 312 312 312 312 310 311 310 311 310 310 308 309 309 310 310 308 310 311 311 308 311 314 316 317 318 320 321 323 325 328 332 337 338 345 346 344 344 341 339 338 337
314 313 312 311 312 312 311 310 310 310 310 310 309 310 310 309 308 308 309 309 310 309 308 310 312 314 315 317 318 319 319 321 324 329 333 336 343 345 345 342 340 340 338
313 313 312 312 312 311 310 309 309 310 309 309 307 308 308 308 308 306 307 308 309 310 309 308 309 308 312 315 316 316 317 319 320 322 325 331 336 341 345 345 342 341 340
313 312 312 311 311 310 309 309 308 309 309 308 305 305 307 308 308 307 307 307 307 308 309 309 310 309 308 310 313 315 317 318 318 318 321 323 330 336 342 345 344 342 340
312 312 311 310 311 309 309 309 308 306 307 308 305 306 306 306 305 307 307 306 306 307 308 307 308 308 308 310 310 311 316 317 317 318 318 322 323 328 335 340 344 344 342
311 310 310 310 310 309 309 308 308 306 307 307 303 303 303 303 306 305 306 306 305 306 306 306 307 307 308 309 310 309 309 313 317 318 319 320 322 323 327 333 338 344 343
310 309 309 309 309 309 308 308 308 307 304 306 304 302 300 300 300 305 304 305 305 305 306 306 306 307 307 308 309 310 309 311 314 316 318 320 321 321 322 327 333 341 343
309 309 308 308 308 308 307 307 307 306 305 302 304 303 304 301 298 297 304 303 304 303 305 306 305 306 307 307 309 309 309 310 312 314 317 319 320 322 321 321 328 333 340
309 309 308 307 307 308 307 307 305 305 305 303 303 303 302 302 301 298 296 300 302 304 304 305 305 306 306 307 307 309 309 310 312 313 315 316 318 320 322 322 321 328 335
308 308 307 307 307 307 307 306 306 305 305 304 303 303 301 300 299 298 297 297 297 300 303 304 305 305 306 306 307 310 309 310 311 312 313 315 316 318 320 321 319 324 333
307 307 307 306 306 307 307 307 306 305 305 304 303 303 303 302 302 300 298 297 296 300 301 303 304 306 306 306 307 310 309 310 311 312 313 314 315 316 318 319 318 320 327
308 308 307 306 306 306 306 306 305 305 305 304 304 304 303 302 302 301 299 297 295 297 299 301 305 305 306 306 307 309 307 310 310 311 312 313 313 314 315 317 317 317 325
308 308 307 306 305 305 305 305 304 304 304 304 304 304 302 302 302 302 301 300 297 293 295 300 301 305 305 306 308 307 307 310 310 310 311 311 312 314 314 316 317 317 320
308 307 306 305 305 305 304 304 304 304 303 304 303 302 302 302 302 302 301 301 301 298 297 301 302 304 305 305 307 307 307 311 310 311 311 311 312 312 313 314 315 315 319
307 306 305 305 304 304 303 303 303 303 302 302 302 302 301 302 301 301 302 302 302 302 299 301 303 304 303 304 305 306 307 307 309 311 311 311 311 311 312 312 315 315 318
307 305 305 304 303 303 303 302 302 301 301 301 301 301 300 300 300 302 303 302 302 302 301 299 301 302 303 305 305 305 306 307 306 309 310 311 311 311 311 312 315 315 318
306 305 304 303 302 303 302 302 302 301 300 301 301 300 299 300 301 302 302 302 302 301 301 301 301 303 304 305 305 304 304 305 305 309 311 311 311 311 311 313 314 314 318
304 304 303 303 303 302 302 302 301 301 300 301 300 300 300 301 302 302 301 301 301 301 300 301 301 301 301 304 304 301 300 303 304 307 309 310 311 311 312 313 313 316 316
304 304 303 302 303 302 301 301 301 301 301 300 300 301 302 303 304 303 302 301 301 299 298 299 299 300 301 302 300 300 301 302 305 310 307 308 311 312 312 314 315 317 317
304 303 302 301 301 300 305 305 303 301 300 300 300 301 302 303 302 303 303 303 302 299 299 298 300 300 302 300 300 300 300 300 298 312 309 307 312 311 311 315 317 320 321
303 302 301 301 301 301 303 304 303 301 301 301 301 301 301 300 301 301 302 302 303 303 304 302 300 300 298 300 301 301 302 301 301 309 310 307 313 310 314 315 315 320 320
303 302 301 301 301 301 303 305 304 302 301 302 301 301 301 300 301 300 300 301 301 302 303 303 302 302 302 304 304 304 303 304 306 312 313 305 312 310 313 314 319 318 317
302 301 301 300 300 300 303 304 303 301 300 301 301 301 301 300 301 302 301 301 300 301 304 306 307 308 308 308 307 305 305 304 304 307 312 311 311 309 313 318 318 316 315
302 302 300 300 302 300 303 303 302 300 299 299 300 301 301 301 301 302 302 300 298 300 302 302 304 306 305 304 307 313 311 307 306 307 314 310 314 316 313 317 317 316 314
Wind_Speed
5 5 4 4 3 3 3 3 3 3 4 5 5 4 4 5 5 3 3 10 12 12 12 13 13 13 12 12 13 13 14 13 11 14 13 13 13 13 12 12 12 11 10
6 5 5 4 4 3 2 2 2 2 2 3 4 4 3 3 3 3 2 4 9 12 13 13 13 13 13 13 13 12 12 13 14 13 14 14 15 15 14 15 14 13 12
8 7 5 5 4 4 4 3 3 2 2 1 2 2 2 1 1 3 2 3 2 6 10 12 13 13 12 12 11 11 11 13 12 15 14 16 15 15 16 17 17 15 14
9 8 6 5 5 4 3 3 3 2 0 1 2 0 1 2 3 2 3 3 4 4 3 10 12 12 12 12 12 11 12 12 12 12 10 16 12 17 18 19 19 17 15
10 8 6 6 7 5 5 4 3 2 1 1 3 3 3 3 5 4 1 3 3 4 4 6 8 7 11 12 13 13 13 13 14 14 14 12 12 12 21 19 20 19 18
11 9 7 7 7 6 5 4 4 3 1 2 4 4 3 3 4 4 5 5 3 5 4 6 6 5 6 9 13 13 14 14 14 15 16 13 14 15 15 22 20 20 19
12 10 7 8 8 7 6 6 4 4 3 2 4 3 3 4 5 5 4 5 5 5 6 7 6 5 6 10 9 11 16 16 16 15 15 17 15 16 17 18 22 21 21
13 11 10 9 10 7 8 7 6 4 2 1 3 3 2 4 2 4 3 3 6 4 8 8 10 9 8 7 8 12 11 14 16 17 16 16 18 18 19 19 17 24 23
14 13 13 10 10 9 7 8 7 6 4 2 2 3 2 2 5 2 5 5 5 7 8 9 11 10 10 10 10 9 10 14 16 18 19 18 18 17 17 20 20 18 24
16 15 14 12 11 9 9 8 7 6 5 4 3 3 2 4 3 5 2 6 9 8 11 9 10 11 11 9 11 13 14 14 15 17 19 20 20 19 18 15 23 26 23
16 16 15 14 12 9 10 10 9 8 6 4 4 3 4 4 5 6 11 7 9 9 9 10 10 10 12 12 11 12 15 17 18 19 20 21 22 21 21 20 21 24 25
13 16 16 14 13 12 11 10 10 10 8 7 5 5 5 5 5 7 10 12 14 12 11 11 10 11 10 11 14 17 19 20 21 21 22 23 22 23 21 20 15 26 31
12 16 18 16 13 13 12 11 11 10 9 8 8 6 6 6 7 8 9 11 12 11 11 11 11 10 10 11 12 16 18 21 22 24 24 24 24 22 22 20 17 23 26
14 18 18 16 16 15 13 12 9 9 9 8 9 8 6 7 7 8 9 11 12 12 12 14 11 10 10 11 13 21 17 23 21 21 24 25 24 24 24 22 20 20 25
14 18 19 17 17 16 15 13 9 11 10 9 9 9 8 7 8 8 9 10 12 14 13 12 12 12 11 12 15 16 17 22 23 25 27 28 27 26 24 24 21 18 21
18 19 19 18 17 16 15 14 11 11 10 8 7 9 9 8 9 8 9 10 11 13 15 12 12 14 14 13 16 17 18 21 25 27 29 28 28 27 26 25 24 19 25
19 19 19 19 18 17 16 14 13 11 11 10 9 9 10 11 9 9 9 10 10 12 15 13 13 15 18 18 17 16 16 16 15 26 29 29 27 27 27 26 26 24 26
19 19 19 18 18 17 16 15 14 11 11 11 10 10 11 8 11 11 9 12 12 13 13 20 15 14 17 17 18 18 13 12 13 22 30 30 29 28 27 26 26 22 20
19 19 18 19 18 17 16 15 13 12 11 10 9 10 11 10 11 10 11 11 12 12 13 13 15 13 14 14 16 13 15 16 14 26 31 31 30 27 27 27 26 22 21
20 19 19 18 17 16 15 14 12 12 11 9 9 10 11 11 12 12 11 14 14 13 12 13 14 14 13 16 11 12 14 12 12 14 21 21 22 26 27 28 26 29 25
19 19 19 17 16 15 12 14 13 12 11 10 10 10 10 11 14 14 11 14 15 11 11 13 14 14 13 12 13 12 10 13 15 12 9 11 11 10 11 24 19 22 21
20 20 19 18 17 12 16 17 13 11 10 10 10 9 10 11 12 17 18 19 17 15 14 12 13 15 18 14 14 13 13 12 13 11 11 11 9 9 9 10 10 17 34
21 20 19 18 17 15 19 20 17 10 9 9 9 8 8 8 10 11 14 17 18 22 24 18 19 18 18 17 18 18 15 13 13 13 8 9 8 9 7 9 14 25 33
20 18 18 18 16 13 19 19 18 12 10 10 9 9 9 11 10 10 12 14 16 17 17 13 13 16 18 18 17 17 17 15 13 12 9 8 7 6 7 8 26 31 31
17 18 17 17 16 13 20 19 15 11 10 9 8 9 9 10 11 13 13 15 18 16 17 20 27 29 31 31 27 15 11 5 8 5 6 8 5 6 8 10 18 32 30
18 14 16 16 17 14 20 19 16 8 9 7 8 8 10 12 12 14 13 14 16 16 17 16 16 18 20 19 29 11 5 6 1 4 7 3 9 6 7 7 15 16 15
Wind_Direction
163 155 157 153 140 141 117 105 96 99 87 74 58 48 45 47 47 47 76 40 32 30 29 29 24 17 12 11 10 13 15 3 343 235 226 223 228 217 209 205 203 200 187
163 169 165 160 154 146 140 125 111 100 97 88 83 53 43 55 60 37 32 81 43 31 26 25 20 15 12 12 9 6 7 357 360 2 256 227 228 222 216 208 208 211 203
171 171 174 174 160 162 149 145 122 121 116 115 98 52 62 75 117 52 44 20 29 72 22 18 14 11 10 7 2 358 357 354 348 2 330 258 231 223 218 209 213 215 207
179 177 177 173 169 168 172 176 168 149 92 327 295 356 354 217 205 69 69 19 10 353 7 15 359 358 359 359 356 349 342 334 336 344 344 5 281 225 218 214 215 212 217
183 180 180 171 175 174 187 183 176 237 232 292 301 281 290 247 216 209 206 2 13 340 342 355 348 326 342 341 342 340 337 330 327 321 313 318 314 322 229 219 216 218 211
185 185 180 179 180 179 181 193 197 192 277 312 293 276 295 243 233 238 278 272 309 317 310 325 317 319 315 321 325 326 330 326 322 316 309 300 302 305 314 226 217 217 217
186 186 183 181 189 191 189 197 189 206 201 312 283 259 244 256 243 237 266 267 288 301 290 313 299 312 303 309 298 314 318 318 314 311 306 299 292 289 302 323 221 212 214
187 187 185 188 190 187 187 194 204 204 207 309 312 264 283 192 217 224 298 314 291 292 303 300 302 300 300 302 300 307 301 308 309 305 301 294 290 289 285 295 313 217 214
188 193 190 191 190 192 192 197 196 208 213 190 276 310 254 283 328 251 245 318 304 295 297 299 300 297 296 294 294 297 303 307 302 299 298 295 293 285 287 276 286 251 213
190 194 192 194 192 194 196 196 194 199 216 217 206 236 259 307 301 302 231 287 300 302 295 293 292 293 289 289 292 282 289 298 299 296 292 294 290 289 282 296 271 274 257
193 193 193 193 196 196 198 195 195 198 206 220 227 205 231 257 259 275 296 302 297 286 296 298 294 290 292 295 296 296 292 301 291 292 287 286 286 284 278 279 293 284 315
190 193 196 195 197 196 195 196 199 207 204 212 218 231 250 265 276 282 283 295 300 303 296 291 291 292 290 285 284 282 282 289 290 291 287 284 278 280 277 273 288 262 263
188 193 194 195 196 194 193 195 199 204 208 215 222 234 239 251 269 275 281 282 284 286 287 284 280 273 274 277 277 280 281 285 285 284 287 286 281 276 275 270 263 263 271
185 187 190 194 193 190 192 195 198 206 208 217 230 238 251 259 256 265 271 284 285 284 278 283 282 281 276 276 279 285 277 278 279 282 284 279 279 276 275 262 261 274 243
183 185 187 190 191 191 193 195 202 203 208 220 224 236 247 258 263 270 270 271 279 288 285 291 291 291 289 285 283 286 285 284 284 281 280 277 276 273 266 262 254 269 261
181 179 184 187 189 190 194 194 203 212 213 216 231 239 250 260 268 269 269 271 272 280 286 288 288 292 287 284 283 282 282 281 279 278 278 275 272 268 263 260 250 252 242
178 179 183 185 187 191 194 196 206 208 216 225 228 242 256 265 268 271 272 273 274 276 281 286 289 291 291 292 289 287 287 289 278 279 277 271 267 262 259 254 252 244 236
179 180 182 185 187 193 195 200 206 208 216 226 234 244 259 263 266 268 271 274 279 283 286 289 289 290 292 293 290 283 273 271 271 269 269 266 265 256 254 247 249 260 241
178 181 182 187 188 191 196 201 207 212 220 230 239 255 264 268 270 274 279 285 285 284 287 294 291 295 291 286 288 291 280 273 270 266 264 262 256 249 243 236 245 245 220
178 182 184 187 188 189 195 199 205 214 220 230 247 253 263 265 272 281 284 282 287 287 286 287 288 291 298 288 286 286 283 272 278 269 257 249 243 234 241 234 234 229 213
179 180 182 185 187 190 191 194 200 211 221 234 241 252 255 263 279 279 286 292 292 302 285 290 289 285 287 289 285 288 273 284 286 263 243 238 219 227 225 230 238 221 249
178 179 183 183 185 190 182 188 199 208 220 235 249 257 263 266 265 274 282 283 287 289 289 288 290 284 288 292 284 276 275 270 285 252 228 235 223 209 221 223 212 219 147
176 179 181 181 184 189 182 189 195 215 224 238 249 261 270 276 283 280 284 282 282 285 281 284 285 285 287 284 283 280 276 272 272 259 247 220 199 204 191 234 224 159 139
177 177 180 181 183 186 183 189 196 219 232 240 253 260 270 282 283 291 292 292 293 287 289 287 289 290 283 281 283 280 275 265 263 255 224 222 189 201 184 213 167 141 134
177 177 178 180 181 179 183 190 197 218 231 243 250 256 268 276 275 290 293 295 299 299 299 312 305 297 301 302 296 291 271 219 229 202 199 201 175 156 205 174 137 132 132
174 170 175 180 181 179 182 190 201 222 231 241 247 258 242 259 283 293 295 305 300 309 319 307 304 307 308 301 312 291 228 220 101 225 183 230 157 170 124 128 133 127 127